Погода в Татаурове

Россия / Республика Бурятия     52°08′26″N   107°26′18″E
темп.,
°C
ветер,
м/с
пор.,
м/с
влажн.,
%
обл.,
%
осадки,
мм/ч
давл.,
гПа
погр.,
м
14 мая, пт
пт1423:00−1зсз226031 0.0 101720
02:00−3зсз22745 0.0 101824
05:00−3з219167 0.0 101920
08:00+3юз23637 0.0 1018609
11:00+9з454192 0.0 10161809
14:00+11сз452971 0.0 10142394
17:00+12ссз342821 0.0 10142309
20:00+7з22480 0.0 101627
15 мая, сб
сб1523:00+2с11630 0.0 101810
02:00+1ссв11670 0.0 101810
05:000ссв11714 0.0 101710
08:00+7ю12425 0.0 1016354
11:00+12зюз783090 0.0 10151300
14:00+12зсз6104056 0.0 10151726
17:00+11зсз61030100 0.0 10151899
20:00+8з394680 0.0 1016639
16 мая, вс
вс1623:00+3з227043 0.0 101820
02:00+5зюз256599 0.0 1018230
05:00+2зюз228299 0.0 101719
08:00+9юз265226 0.0 1014535
11:00+16з61235100 0.0 10112109
14:00+13зсз71252100 0.1 10121580
17:00+10зсз3107490 1.1 10121068
20:00+9зюз268696 1.3 1012363
17 мая, пн
пн1723:00+5зюз119622 0.0 101212
02:00+5з019798 0.0 100910
05:00+5ююв0197100 0.0 100612
08:00+8зюз2887100 0.3 1005443
11:00+8зюз21094100 3.6 1005792
14:00+12зсз51066100 3.8 10051506
17:00+11сз5967100 0.4 10061300
20:00+7сз257011 0.6 1009406
18 мая, вт
вт1823:00+2зсз228536 0.0 101248
02:000з239496 0.0 101460
05:000з229643 0.0 101434
08:00+4юз257669 0.0 1014688
11:00+9зюз464499 0.1 10111771
14:00+11зюз574199 0.1 10081719
17:00+12з4644100 0.0 10051392
20:00+9ююз1160100 0.0 100420